Location: Byszew
(52.1813°N, 19.2693°E)
Time: 23:58:44
(UTC+00:00)

SJ 16-02 - Pass Details

Date: 03 March 2021
Orbit: 605 x 617 km, 75.0° (Epoch: 11 April)

Event Time Altitude Azimuth Distance (km) Brightness Sun altitude
Rises 19:33:53 0° 332° (NNW) 2,885 5.6 -28.6°
Reaches altitude 10° 19:36:12 10° 326° (NW) 1,978 4.7 -28.9°
Enters shadow 19:39:38 40° 284° (WNW) 905 2.5 -29.4°
